CZ-2D DEB, 43490

Orbit data source: Space-Track

CZ-2D DEB, 43490 is space debris in SSO originally from a launch on Sat, 02 Jun 2018 UTC launched from the Jiuquan Satellite Launch Center, China (JSC). Debris objects in space refer to the collection of defunct objects orbiting the Earth. Examples of debris include non-operational satellites, rocket bodies, and fragments generated from explosions, collisions, or faulty payload assembly.

Loading next visibility...
Identifier
43490, 2018-048E
Orbit
SSO
Country
Flag of CNCN / PRC
Related business
Manufacturer
CALT
Mission
Spacecraft
Bus & Motor
Unknown
Mass
1 kg wet, 1 kg dry
Launch date (UTC)
2018-06-02 (8 years ago)
Launch vehicle
Unknown
Launch site
Jiuquan Satellite Launch Center, China (JSC)
Object type
Payload
Rocket body
Debris
Shape & HBR
Cone, 0.1 m
Radar Cross Section
0.025 m², Medium (>0.1 m² and < 1m²)

Expand to show TLE details & history
Last TLE update: 1 day ago

TLE from 1 day ago
0 CZ-2D DEB
1 43490U 18048E   26255.44654156  .00003130  00000-0  27746-3 0  9992
2 43490  98.2819  68.1130 0021583 217.1942 142.7784 14.96867445447230
Epoch: 2026-09-12T10:43Z
TLE epoch observation values (Epoch: 2026-09-12T10:43:01.190Z)
Latitude
-0.00003°
Longitude
-84.09738°
Altitude
591.582 km
Speed
7.558 km/s
True Right ascension
04h 32m 27s
True Declination
0° 00' 00"
Sunlit
Object was in daylight at epoch
Visualization orbit readout
Latitude
Unknown
Longitude
Unknown
Altitude
Unknown
Speed
Unknown
Apparent Right ascension
Unknown
Apparent Declination
Unknown
Sunlit
N/A
Visualization observer readout
Local Sidereal Time
09:52:56
Azimuth
Unknown
Elevation
Unknown
Doppler factor
Unknown
Orbital elements
Apogee altitude
588.622 km
Perigee altitude
558.614 km
Semi-major axis
6,951.755 km
Eccentricity
0.00216
Inclination
98.2819°
RAAN
68.113°
Arg. of periapsis
217.1942°
True anomaly
142.92768°
Mean anomaly
142.7784°
Eccentric anomaly
142.85307°
Mean motion
3.74457 °/min
Orbital period
96.14 mins
BSTAR
0.00027746
Loading maneuver chart data...
Computing Atmospheric mass density...
Loading historical data...
Loading historical data...
Loading historical data...
Loading historical data...
Loading historical data...
Loading historical data...
Loading historical data...
Other satellites on launch #48 in the year 2018 (2018-06-02 UTC)

Documentation

Showing up to 5 results
|